Wetbulb
49.75 44.90 43.74 47.75 53.35 53.95 54.63 53.20 52.27 54.18 58.29 54.61 53.43 54.35 57.82 60.38 60.28 58.15 58.20 58.39 59.00 59.23 61.83 62.42 62.69 62.00 60.86 59.94 58.28 57.09 55.05 54.17 53.59 52.41 50.63 51.00 50.22 50.90 50.38 49.86 50.26 50.22 50.30 49.85
47.53 44.80 49.25 52.58 55.03 53.94 52.58 50.83 51.32 54.81 57.71 54.47 53.54 53.64 57.99 59.87 59.81 59.93 59.08 59.09 59.13 59.32 60.53 61.29 61.30 60.86 59.93 58.70 57.70 56.06 54.73 53.65 52.92 53.20 51.91 52.45 52.41 50.79 50.42 49.72 49.52 50.37 49.96 49.65
45.81 49.19 53.22 52.63 52.36 52.24 51.34 49.70 50.95 51.72 55.95 55.36 53.20 51.54 54.93 59.85 61.11 61.02 61.22 60.57 60.37 59.66 58.87 59.70 60.51 60.12 59.79 57.85 56.75 55.04 54.52 53.16 52.13 53.30 51.82 50.96 50.90 48.55 47.44 47.57 47.58 49.33 50.12 49.95
46.65 50.90 51.92 51.07 50.78 51.23 47.26 53.91 53.79 52.58 49.92 47.50 54.58 42.05 48.49 57.82 58.57 59.71 60.52 59.74 59.65 60.19 59.97 60.15 59.76 59.30 57.78 57.22 56.33 54.78 53.56 52.88 52.65 51.57 50.79 48.42 47.42 45.67 46.22 46.36 47.63 48.32 49.71 49.30
45.99 48.32 48.17 49.66 51.02 52.48 49.46 52.73 50.20 50.04 46.85 43.79 48.04 44.01 48.55 57.23 55.91 58.20 59.43 59.60 59.57 60.69 60.50 60.16 58.98 59.64 58.06 57.66 55.04 54.45 53.44 52.72 52.39 51.37 49.53 48.51 46.96 47.49 48.37 49.14 48.39 48.27 48.49 49.37
48.01 51.93 50.39 50.23 52.53 51.43 51.75 49.74 48.10 46.83 44.22 38.46 47.51 46.14 45.97 52.49 56.81 58.44 60.52 59.66 59.90 60.48 60.42 60.27 59.92 59.92 58.09 56.29 54.77 53.85 52.29 51.78 52.20 51.60 50.62 48.94 48.61 47.53 47.35 48.20 47.64 48.51 48.79 49.01
47.05 47.84 50.46 51.90 47.95 49.31 48.10 43.47 37.79 37.06 36.75 37.71 49.62 48.43 50.46 54.82 57.64 58.04 57.12 59.47 59.67 60.47 60.09 59.47 59.27 58.68 57.24 53.49 53.41 53.28 51.95 50.86 51.58 51.09 49.97 49.60 48.59 47.97 47.71 48.12 48.10 48.45 48.03 48.29
41.74 41.20 47.39 51.08 48.47 45.90 45.85 44.73 39.66 34.95 38.80 41.83 49.26 46.83 51.34 56.31 57.87 59.30 60.81 60.18 60.18 59.58 58.86 58.64 59.12 57.94 54.62 52.27 52.22 52.96 51.55 50.75 50.71 50.70 49.91 49.03 49.48 48.36 49.50 49.43 49.63 49.23 49.03 48.86
42.68 44.32 50.85 51.05 49.87 48.47 45.40 44.17 47.66 41.47 43.81 41.81 48.28 52.42 54.84 56.53 57.03 59.27 58.60 59.51 58.82 58.93 58.36 58.62 58.63 55.99 52.88 51.01 50.95 51.06 50.55 50.56 50.39 50.19 49.01 48.78 48.87 48.84 49.57 49.84 49.42 49.75 49.81 50.70
47.00 43.46 50.73 51.34 49.82 49.31 48.27 51.70 44.06 44.27 38.02 37.20 43.59 47.49 49.01 51.96 55.37 58.06 58.04 57.83 58.86 59.13 58.72 59.79 55.84 53.87 52.10 50.80 50.69 51.45 50.92 50.87 50.07 49.73 49.27 48.98 48.73 49.64 50.34 49.51 49.14 49.16 49.97 49.66
46.83 45.31 46.41 48.94 46.21 44.91 45.06 45.51 47.06 47.92 45.34 39.23 38.92 44.61 53.14 53.54 55.47 57.65 57.98 58.68 58.74 59.39 59.64 56.42 54.50 52.38 51.54 50.64 50.36 50.66 50.69 50.54 49.90 49.95 49.26 49.29 48.79 49.31 50.42 49.63 49.63 49.28 50.24 50.52
48.28 45.70 41.95 45.45 50.09 51.02 48.87 48.68 49.08 43.68 42.74 45.00 43.20 42.92 55.66 56.62 57.36 57.93 59.01 58.83 59.15 58.98 56.96 55.83 54.34 52.49 50.57 49.28 49.57 50.08 50.25 51.18 50.41 50.18 49.69 49.07 49.65 49.30 49.73 49.06 49.21 49.09 49.40 49.27
48.78 43.52 39.08 43.53 49.44 50.22 47.67 48.84 48.84 50.94 48.57 43.56 41.42 44.15 56.00 58.50 59.42 59.72 58.68 58.55 58.29 57.02 57.31 55.33 53.03 51.42 50.03 49.69 50.23 50.37 50.86 50.58 50.62 50.37 49.81 49.53 49.37 48.52 48.27 48.67 48.58 49.22 49.35 50.86
54.06 46.64 44.10 41.15 47.24 49.33 48.99 49.67 49.51 48.61 44.69 45.38 45.96 48.72 51.82 54.36 57.98 57.39 57.73 57.79 56.89 56.71 56.24 54.31 52.60 50.86 49.85 50.25 50.44 51.10 51.03 51.48 50.56 50.29 49.51 48.62 48.62 48.36 48.94 48.40 49.33 49.06 51.18 50.83
51.29 44.46 47.79 47.83 50.11 50.70 50.82 51.78 50.46 47.36 48.35 45.50 48.35 49.04 50.62 55.66 56.46 57.07 57.91 57.81 56.56 56.06 55.11 53.90 51.80 50.59 49.67 49.08 50.24 51.14 51.64 50.64 50.49 50.11 49.35 49.10 49.63 49.63 49.34 49.52 48.53 49.02 51.51 50.95
52.88 45.83 47.46 47.77 52.16 51.75 51.73 52.57 52.12 51.06 49.62 51.94 52.57 50.75 56.74 57.45 57.98 57.98 58.04 57.92 56.21 55.64 54.92 53.87 52.76 51.35 50.36 50.46 50.36 51.57 51.64 50.94 50.20 49.17 48.98 50.39 49.96 50.22 49.30 48.23 49.59 51.11 49.13 49.48
51.14 48.56 46.74 43.07 50.70 50.35 47.00 50.74 50.48 52.11 51.94 51.87 47.74 51.12 54.86 55.56 56.54 56.87 57.07 57.50 56.64 56.14 55.18 54.19 53.03 52.14 51.44 50.85 51.17 50.50 50.89 51.21 50.45 50.16 50.58 50.74 50.32 50.45 50.18 49.49 49.73 49.04 48.07 50.49
50.03 48.90 47.06 44.05 47.62 41.52 49.60 54.06 53.89 52.81 53.21 53.53 54.57 54.89 54.91 55.75 57.02 58.60 59.52 57.32 57.25 56.59 55.79 54.95 54.14 52.85 52.30 51.41 50.78 51.27 51.80 51.13 50.79 49.73 50.13 50.85 51.24 49.89 50.99 50.41 49.09 48.40 48.96 50.17
53.76 50.71 45.26 43.69 43.88 47.67 51.73 52.58 50.96 50.73 50.86 54.84 52.29 54.74 55.30 56.14 56.30 55.98 59.90 59.29 57.53 56.77 55.96 54.99 54.27 53.07 52.24 51.31 51.36 51.34 51.09 50.41 50.71 50.62 49.73 50.42 52.00 49.70 49.38 49.32 48.74 48.57 48.74 48.13
55.51 53.84 48.80 47.00 42.76 41.54 49.71 55.81 57.52 55.23 46.55 56.87 55.35 54.37 54.19 53.90 48.03 51.22 57.71 59.04 57.41 57.10 55.81 54.41 53.76 53.14 52.12 51.35 51.34 49.92 49.62 49.68 49.58 52.02 50.28 50.48 50.67 50.79 48.83 49.14 48.16 48.38 48.45 47.77
50.47 50.37 47.53 45.71 43.96 49.08 54.49 55.68 56.88 44.42 46.45 56.19 55.46 54.46 53.35 53.02 54.10 56.28 58.42 57.17 56.79 55.99 54.60 53.98 53.37 52.18 51.58 52.14 51.20 49.70 49.77 49.47 51.67 52.71 50.94 51.25 50.05 48.72 49.67 50.04 48.39 48.36 47.64 47.57
48.67 47.94 47.38 47.81 43.94 44.01 56.18 55.57 48.45 52.49 55.59 58.01 58.19 57.70 57.40 57.30 57.38 57.06 56.67 55.65 55.40 54.00 53.87 53.98 52.71 51.49 51.34 51.60 50.49 50.00 48.99 51.33 52.78 51.58 50.90 49.36 49.07 50.28 49.70 49.52 48.61 47.84 47.67 45.63
48.52 49.77 49.92 49.87 48.48 53.18 55.34 57.65 58.57 58.77 55.99 57.17 58.01 58.25 58.09 56.51 56.01 56.10 55.42 55.07 54.25 53.72 53.36 53.59 52.51 51.69 51.58 52.12 51.88 49.43 49.52 50.55 51.06 49.11 47.87 48.64 48.84 49.28 49.86 48.81 49.68 48.11 48.39 46.89
53.89 55.86 51.00 51.12 51.59 52.33 53.71 59.30 58.22 58.56 57.40 58.99 59.34 58.43 57.80 55.83 56.15 55.35 55.47 54.66 53.86 53.69 52.60 53.08 52.39 50.74 50.11 51.46 52.50 51.81 50.82 50.87 50.60 49.86 49.60 48.39 47.58 47.84 48.10 48.83 49.54 45.65 44.79 44.53
52.73 55.02 51.78 52.75 55.40 54.35 57.43 58.79 58.16 57.97 58.90 58.73 58.92 58.48 57.17 56.41 55.55 55.55 54.68 53.66 52.96 52.07 51.89 53.07 52.14 50.94 50.50 51.34 51.13 52.63 51.46 50.61 48.46 48.32 48.44 48.12 48.10 47.24 47.91 49.66 49.19 47.86 48.24 46.33
54.92 53.85 52.06 53.24 56.28 55.74 56.22 58.01 59.01 57.32 57.32 58.01 57.66 56.97 56.94 56.97 55.58 55.43 53.79 52.84 52.47 52.04 52.50 52.98 52.13 51.29 51.23 52.20 51.34 51.30 51.76 50.30 49.08 47.64 49.43 47.92 46.48 47.83 49.38 47.17 48.39 46.97 46.36 43.78
MSLP
1005.30 1005.68 1005.41 1005.44 1005.19 1005.57 1006.43 1007.64 1009.34 1010.36 1010.07 1010.91 1010.04 1009.28 1008.86 1009.18 1009.53 1009.88 1010.48 1011.27 1012.49 1013.67 1014.76 1015.46 1016.48 1017.51 1018.09 1018.99 1019.86 1020.49 1020.83 1021.12 1021.21 1021.17 1021.23 1021.27 1021.61 1021.88 1022.30 1022.28 1022.25 1022.09 1021.94 1021.79
1005.68 1005.22 1005.15 1005.08 1004.82 1005.03 1005.46 1006.40 1007.32 1009.16 1009.41 1010.07 1009.01 1008.55 1008.70 1008.74 1008.19 1008.46 1009.56 1010.64 1012.10 1013.57 1014.83 1015.75 1016.77 1017.75 1018.60 1019.22 1019.88 1020.41 1021.03 1021.33 1021.53 1021.40 1021.38 1021.38 1021.60 1022.16 1022.30 1022.39 1022.30 1022.09 1021.94 1021.86
1005.32 1004.78 1004.74 1004.58 1004.44 1004.60 1004.81 1005.23 1005.60 1006.97 1007.65 1008.77 1009.49 1009.17 1008.04 1008.57 1009.08 1009.65 1009.54 1010.42 1011.41 1012.69 1014.38 1015.57 1016.69 1017.68 1018.54 1019.37 1019.96 1020.45 1020.98 1021.35 1021.65 1021.58 1021.42 1021.48 1021.84 1022.15 1022.31 1022.53 1022.47 1022.13 1021.87 1021.72
1004.99 1004.34 1004.08 1003.94 1003.82 1003.94 1004.16 1003.96 1004.33 1005.04 1006.60 1008.84 1008.99 1008.78 1007.39 1008.36 1009.01 1009.52 1010.30 1010.40 1011.51 1013.06 1014.52 1015.37 1016.45 1017.54 1018.49 1019.34 1019.99 1020.48 1020.89 1021.42 1021.77 1021.85 1022.04 1022.26 1022.63 1022.81 1022.72 1022.58 1022.36 1022.01 1021.73 1021.59
1004.19 1003.67 1003.51 1003.23 1002.76 1002.95 1003.33 1003.13 1003.72 1004.38 1005.60 1006.66 1007.45 1008.23 1009.05 1008.86 1009.22 1008.86 1010.11 1010.73 1011.33 1012.79 1014.19 1015.37 1016.46 1017.26 1018.29 1019.13 1019.85 1020.39 1020.84 1021.45 1021.88 1022.21 1022.37 1022.73 1022.97 1022.84 1022.69 1022.51 1022.29 1022.10 1021.75 1021.51
1003.64 1002.85 1002.56 1002.03 1002.02 1002.41 1002.70 1003.22 1003.65 1004.67 1005.94 1007.17 1008.39 1009.59 1010.45 1010.34 1009.57 1009.15 1010.01 1010.68 1011.24 1012.77 1014.45 1015.52 1016.40 1017.12 1017.99 1018.96 1019.74 1020.29 1020.79 1021.50 1021.95 1022.13 1022.29 1022.50 1022.62 1022.72 1022.92 1022.74 1022.63 1022.23 1022.00 1021.66
1003.43 1002.58 1001.88 1001.29 1001.58 1002.00 1002.83 1004.16 1005.16 1006.13 1007.07 1007.92 1008.49 1010.23 1012.86 1011.89 1011.62 1011.22 1012.30 1013.01 1011.34 1012.64 1013.75 1015.08 1016.03 1016.89 1017.65 1018.81 1019.55 1020.36 1020.88 1021.53 1021.99 1022.20 1022.63 1022.74 1022.62 1022.44 1022.57 1022.64 1022.59 1022.39 1022.14 1021.79
1003.53 1002.46 1001.51 1001.27 1001.64 1002.31 1002.99 1004.11 1005.46 1006.09 1006.93 1007.83 1007.92 1010.21 1012.07 1010.49 1011.02 1010.41 1011.07 1013.22 1011.84 1012.94 1014.01 1015.07 1015.74 1016.36 1017.38 1018.48 1019.33 1020.08 1020.89 1021.51 1021.86 1022.27 1022.64 1022.86 1022.87 1022.79 1022.54 1022.27 1022.30 1022.23 1022.02 1021.81
1003.07 1002.35 1001.27 1000.93 1001.16 1002.05 1002.66 1003.37 1004.04 1005.54 1006.24 1007.62 1008.70 1011.24 1012.00 1010.58 1010.39 1010.21 1010.89 1012.46 1012.14 1013.36 1014.12 1015.03 1015.68 1016.22 1017.20 1018.14 1019.18 1020.01 1020.77 1021.61 1021.91 1022.25 1022.65 1022.80 1022.87 1022.85 1022.65 1022.35 1022.19 1022.09 1021.91 1021.54
1002.46 1002.69 1001.48 1000.90 1000.97 1001.33 1001.98 1002.62 1003.91 1005.20 1006.56 1007.56 1008.07 1009.73 1010.14 1010.59 1009.62 1009.63 1011.80 1011.76 1012.14 1013.19 1013.92 1014.78 1015.66 1016.45 1017.31 1018.10 1019.13 1019.86 1020.45 1021.33 1021.79 1022.10 1022.51 1022.73 1022.71 1022.69 1022.68 1022.52 1022.31 1022.04 1021.77 1021.58
1002.17 1003.03 1001.90 1001.85 1001.02 1001.17 1001.84 1002.41 1003.41 1004.47 1005.70 1006.96 1007.72 1008.69 1007.89 1009.56 1009.95 1010.21 1011.89 1011.59 1011.76 1012.51 1013.39 1014.52 1015.59 1016.59 1017.42 1018.14 1019.05 1020.01 1020.65 1021.32 1021.81 1022.21 1022.44 1022.52 1022.58 1022.57 1022.49 1022.41 1022.23 1022.02 1021.73 1021.48
1001.61 1002.59 1002.69 1001.98 1000.84 1000.16 1000.82 1001.80 1002.76 1004.41 1005.59 1006.48 1006.95 1006.69 1005.88 1006.01 1008.84 1008.95 1010.15 1010.71 1011.23 1012.18 1013.18 1014.05 1015.21 1016.35 1017.27 1018.30 1019.19 1019.98 1020.72 1021.41 1021.68 1021.96 1022.29 1022.39 1022.33 1022.32 1022.24 1022.10 1022.06 1021.80 1021.94 1021.65
1001.06 1002.25 1002.62 1001.98 1000.97 1000.24 1000.77 1001.15 1001.90 1003.27 1004.52 1005.47 1006.20 1005.85 1004.64 1004.82 1006.65 1007.54 1008.38 1009.75 1010.86 1011.75 1012.83 1013.85 1015.03 1016.13 1017.30 1018.56 1019.28 1019.92 1020.60 1021.30 1021.65 1022.08 1022.35 1022.43 1022.25 1022.21 1022.16 1021.99 1021.76 1021.81 1021.83 1021.66
999.96 1001.56 1002.20 1002.26 1001.27 1000.93 1000.78 1000.93 1001.19 1002.39 1003.95 1004.21 1004.31 1004.59 1004.73 1005.36 1006.17 1006.88 1007.51 1008.67 1009.99 1011.01 1012.08 1013.55 1014.86 1016.08 1017.23 1018.26 1019.07 1019.86 1020.53 1021.01 1021.52 1021.95 1022.34 1022.43 1022.31 1022.13 1021.92 1021.69 1021.64 1021.48 1021.57 1021.59
1000.12 1001.67 1001.85 1001.49 1001.27 1000.88 1000.43 1000.34 1000.36 1001.37 1002.13 1003.06 1003.07 1003.71 1004.35 1004.66 1005.28 1006.16 1007.01 1008.23 1009.47 1010.70 1011.95 1013.33 1014.77 1016.11 1017.18 1018.15 1018.93 1019.64 1020.44 1021.06 1021.35 1021.83 1022.08 1022.03 1021.77 1021.59 1021.59 1021.62 1021.55 1021.47 1021.52 1021.51
1000.19 1001.36 1001.85 1001.78 1001.47 1000.92 1000.68 1000.93 1000.15 1000.53 1000.88 1001.98 1002.60 1003.65 1003.62 1004.37 1005.04 1006.08 1007.21 1008.17 1009.37 1010.69 1011.89 1013.37 1014.74 1015.95 1017.01 1017.83 1018.78 1019.49 1020.16 1020.81 1021.00 1021.50 1021.58 1021.37 1021.37 1021.32 1021.37 1021.44 1021.51 1021.52 1021.44 1021.35
1000.48 1001.32 1002.37 1002.45 1002.18 1001.72 1001.59 1001.66 1000.82 1000.03 1000.59 1000.96 1002.53 1003.24 1003.71 1004.60 1005.14 1006.01 1007.08 1007.96 1009.14 1010.47 1011.74 1013.22 1014.49 1015.62 1016.65 1017.52 1018.31 1019.10 1019.87 1020.38 1021.02 1021.24 1021.22 1021.26 1021.35 1021.28 1021.15 1021.13 1021.21 1021.42 1021.42 1021.29
1000.42 1001.70 1002.46 1003.05 1003.20 1002.86 1002.47 1001.39 1000.96 1000.37 1000.28 1001.21 1002.21 1002.77 1003.24 1004.06 1004.61 1005.40 1006.33 1007.56 1008.94 1010.17 1011.52 1012.83 1014.10 1015.39 1016.47 1017.34 1018.25 1018.95 1019.66 1020.31 1020.61 1020.91 1020.99 1020.92 1021.01 1021.09 1021.02 1020.98 1021.13 1021.28 1021.25 1021.18
1000.12 1001.63 1002.91 1003.60 1004.10 1004.01 1002.66 1001.80 1001.50 1001.23 1002.44 1002.75 1001.95 1002.91 1003.48 1004.08 1004.83 1005.68 1006.17 1006.96 1008.26 1009.65 1011.17 1012.56 1013.93 1015.26 1016.46 1017.40 1018.22 1018.91 1019.55 1019.99 1020.37 1020.58 1020.54 1020.58 1020.71 1020.97 1021.12 1021.12 1021.12 1021.16 1021.17 1021.10
1000.21 1001.24 1003.02 1003.90 1004.59 1004.47 1002.99 1002.02 1001.89 1001.17 1002.48 1001.95 1002.06 1002.92 1003.70 1004.39 1005.82 1006.25 1006.53 1007.32 1008.81 1010.08 1011.40 1012.84 1014.22 1015.46 1016.52 1017.49 1018.22 1018.88 1019.33 1019.57 1019.84 1020.11 1020.29 1020.35 1020.51 1020.77 1021.10 1021.02 1021.10 1021.01 1021.03 1021.01
1001.06 1001.86 1003.03 1003.58 1003.88 1003.65 1002.69 1002.18 1001.71 1002.27 1002.82 1001.95 1002.17 1002.99 1003.88 1005.06 1005.57 1006.26 1007.02 1008.48 1009.48 1010.72 1012.11 1013.38 1014.58 1015.70 1016.72 1017.45 1018.14 1018.83 1019.10 1019.35 1019.31 1019.63 1020.10 1020.36 1020.50 1020.78 1020.92 1020.95 1020.89 1020.92 1020.88 1020.81
1001.42 1002.48 1003.33 1003.49 1003.55 1003.73 1002.79 1001.79 1001.94 1002.30 1002.14 1002.32 1002.69 1004.60 1005.09 1005.72 1006.44 1007.18 1008.26 1009.46 1010.51 1011.62 1012.82 1013.66 1014.95 1016.11 1016.89 1017.43 1018.00 1018.74 1019.14 1019.08 1019.21 1019.77 1020.13 1020.49 1020.61 1020.70 1020.79 1020.84 1020.80 1020.74 1020.68 1020.72
1002.92 1003.87 1004.08 1004.23 1003.06 1002.64 1002.27 1001.89 1001.68 1001.88 1002.22 1002.97 1003.49 1004.59 1005.23 1006.45 1007.60 1008.33 1009.40 1010.45 1011.38 1012.22 1013.20 1014.16 1015.30 1016.43 1017.06 1017.54 1018.05 1018.62 1019.04 1019.21 1019.68 1019.97 1020.34 1020.39 1020.56 1020.65 1020.66 1020.72 1020.63 1020.67 1020.59 1020.62
1004.43 1004.38 1004.96 1005.38 1003.44 1002.36 1002.00 1001.59 1001.66 1001.84 1002.14 1003.24 1003.94 1004.82 1005.69 1007.05 1008.16 1009.14 1010.02 1011.06 1011.87 1012.66 1013.50 1014.50 1015.61 1016.62 1017.38 1017.71 1018.08 1018.61 1018.99 1019.21 1019.58 1019.93 1020.30 1020.39 1020.56 1020.65 1020.55 1020.48 1020.43 1020.64 1020.51 1020.57
1006.37 1005.80 1005.84 1005.10 1004.07 1002.66 1002.14 1001.66 1002.10 1002.33 1002.59 1003.75 1004.50 1005.22 1006.29 1007.37 1008.69 1009.47 1010.47 1011.34 1012.07 1012.81 1013.66 1014.55 1015.55 1016.47 1017.19 1017.65 1018.13 1018.43 1018.93 1019.22 1019.79 1020.02 1020.27 1020.38 1020.39 1020.49 1020.45 1020.14 1020.05 1020.19 1020.18 1020.20
1006.85 1006.75 1008.09 1005.89 1002.86 1001.98 1002.36 1002.19 1002.27 1002.86 1003.62 1004.36 1005.05 1006.18 1006.92 1007.69 1008.87 1009.78 1010.77 1011.50 1012.22 1012.99 1013.75 1014.65 1015.64 1016.43 1017.00 1017.55 1018.09 1018.40 1018.69 1019.12 1019.65 1019.91 1020.12 1020.17 1020.22 1020.18 1020.10 1019.93 1019.80 1019.56 1019.74 1019.92
Wind_Speed
6 2 6 11 9 7 11 10 10 7 14 2 12 20 11 19 13 15 15 15 15 16 17 17 17 15 14 12 10 8 8 7 5 4 3 3 3 4 4 4 5 5 4 5
4 10 9 10 9 9 8 6 10 15 14 12 21 21 14 21 24 18 18 17 17 17 17 16 15 14 10 12 11 9 8 7 4 2 2 2 4 4 4 3 4 5 5 3
10 7 11 12 12 13 10 8 10 14 18 12 6 17 18 22 10 6 9 11 21 23 20 17 16 13 12 11 11 9 8 7 5 6 4 4 4 3 5 3 2 2 3 4
9 14 15 14 14 13 13 9 12 12 7 10 19 8 3 19 17 11 9 17 20 19 17 15 17 12 12 11 11 9 8 7 6 7 6 7 3 2 1 1 1 3 3 3
8 11 14 16 19 18 16 11 4 5 5 4 11 6 7 18 10 14 11 18 20 19 19 17 16 15 13 13 11 9 8 7 7 7 7 5 3 2 2 2 4 3 4 4
14 12 11 15 6 2 5 7 7 6 1 3 5 7 5 1 7 4 4 18 18 20 18 17 15 14 13 13 11 10 9 6 8 7 7 3 4 1 2 4 4 4 3 4
8 13 8 5 3 5 3 5 5 7 4 6 9 5 7 11 20 14 16 11 19 18 18 18 16 14 14 14 13 10 9 7 8 8 6 3 2 3 3 3 3 4 3 3
6 8 7 5 7 11 8 7 5 7 4 6 2 7 5 6 18 21 13 18 16 15 15 15 15 11 15 13 12 11 9 8 8 8 6 2 4 3 2 2 2 2 2 3
4 10 10 8 5 9 7 9 9 4 8 2 6 6 6 10 12 18 23 16 17 16 15 14 14 9 12 11 10 10 9 8 8 8 5 3 3 4 2 3 3 2 3 3
8 4 8 10 10 9 11 5 2 2 5 6 5 5 6 4 5 13 10 18 17 16 16 16 11 14 11 9 9 10 9 10 8 7 6 4 2 2 3 4 4 4 4 4
9 6 17 4 4 9 3 7 5 2 6 6 0 2 8 11 5 5 12 15 19 19 15 15 14 14 13 9 9 8 8 9 8 7 5 5 2 2 3 3 4 4 4 6
10 7 7 12 12 14 10 9 7 5 8 3 4 8 6 10 23 15 18 22 19 15 16 16 14 13 10 9 8 7 7 10 7 7 6 4 2 2 3 2 3 3 5 4
10 4 3 11 8 5 9 7 5 5 4 5 6 5 1 9 17 19 19 21 18 20 18 15 13 11 12 10 8 7 7 8 7 7 5 3 3 3 2 1 2 4 4 5
14 6 8 9 8 3 2 6 7 8 4 5 6 7 4 6 16 14 15 19 19 17 17 15 13 11 11 10 9 7 7 9 7 7 5 3 3 2 2 1 2 2 3 4
9 7 7 9 8 12 9 11 14 8 9 7 6 9 8 11 10 15 18 17 17 16 15 15 14 12 11 9 8 8 8 8 7 6 5 5 5 5 4 2 3 3 3 3
5 6 6 6 7 10 14 13 3 3 9 6 12 7 8 7 8 13 17 16 16 15 16 17 15 15 12 11 9 8 8 9 7 6 6 6 4 5 4 3 3 2 1 2
7 6 5 5 6 10 9 7 8 6 3 3 5 9 8 9 10 14 12 15 15 15 17 17 17 14 12 10 10 8 8 7 7 6 6 6 5 5 5 4 3 2 2 2
5 6 4 3 4 5 4 4 5 7 10 9 11 12 11 11 9 12 14 11 14 16 16 16 14 12 11 8 8 8 8 9 7 6 6 6 6 4 4 2 1 2 2 2
5 6 2 5 3 5 7 4 6 7 7 20 4 10 10 9 6 6 14 12 11 17 15 15 14 14 12 10 8 8 7 7 7 6 6 4 6 4 1 2 1 1 2 3
7 6 6 3 5 5 10 6 8 2 8 7 8 14 13 9 5 5 9 16 16 17 16 16 15 14 12 8 8 8 7 7 7 8 6 5 4 3 2 2 2 2 2 2
4 3 6 3 4 3 7 10 5 4 8 5 7 10 8 6 5 9 18 16 17 17 19 17 15 12 10 8 8 7 6 6 5 7 6 5 5 3 1 2 2 2 2 3
6 7 4 4 4 5 5 2 6 8 4 5 16 8 13 13 14 16 18 18 19 20 18 16 14 12 8 8 7 5 6 4 6 7 6 5 4 1 1 3 3 2 3 0
5 3 1 1 7 6 6 8 4 3 5 7 14 12 16 15 14 16 16 16 16 16 14 14 14 11 7 7 7 7 4 5 5 6 4 3 2 2 2 2 3 2 3 3
6 7 5 9 7 6 7 7 4 6 8 11 12 12 15 16 15 14 14 14 12 11 12 13 14 11 7 7 7 7 5 4 4 6 4 2 2 3 3 2 2 1 2 1
3 4 10 10 14 4 3 7 8 8 11 12 10 12 15 16 13 13 12 12 11 8 8 13 12 11 8 8 8 7 7 5 4 4 3 4 3 4 4 4 4 3 2 2
2 6 9 7 6 4 5 8 10 9 9 11 15 13 10 13 12 13 10 10 10 8 7 9 11 11 8 8 7 7 7 7 6 4 3 4 2 4 4 3 4 5 7 7
Wind_Direction
198 184 202 241 238 247 168 129 172 181 255 342 240 246 243 194 200 183 177 169 159 147 130 125 117 114 113 107 96 94 72 35 32 38 34 17 50 89 83 80 59 47 19 1
254 221 232 235 253 255 264 259 215 169 200 184 260 244 220 194 204 187 180 175 151 142 136 130 125 122 121 119 116 102 98 67 27 16 42 28 106 66 108 98 55 21 7 355
225 213 228 243 253 260 246 230 261 177 206 210 323 259 205 199 199 230 185 169 154 154 143 140 130 132 132 126 120 114 115 95 55 42 42 20 73 38 37 21 34 296 342 340
231 247 219 226 240 253 269 234 233 260 151 205 203 261 254 167 179 201 248 154 155 148 142 141 139 137 130 128 119 115 103 113 83 59 55 60 67 93 255 249 251 286 303 296
238 228 235 231 229 233 252 259 234 281 267 32 350 52 333 139 191 190 203 163 157 147 147 144 141 141 141 132 129 122 115 108 115 90 81 67 32 66 324 327 347 328 322 336
226 221 233 233 219 200 338 337 349 306 190 337 147 119 256 254 200 214 187 176 151 141 143 139 145 148 151 133 133 125 120 124 115 115 112 107 94 65 20 357 14 343 346 347
282 244 256 147 70 8 359 20 338 311 346 225 188 94 46 345 345 327 286 265 143 148 141 142 151 163 152 141 136 136 127 138 128 111 88 86 63 48 78 39 357 358 344 338
224 265 238 161 173 192 213 189 195 244 207 239 231 162 176 54 322 294 270 232 140 135 133 145 161 165 130 142 142 132 140 131 125 114 110 79 47 22 28 40 4 347 356 350
213 235 257 179 171 160 253 236 211 253 279 334 121 88 202 232 246 278 165 167 137 142 153 166 175 131 123 116 129 130 126 125 124 126 131 106 57 355 13 1 43 22 20 329
256 299 273 264 170 220 191 218 266 278 248 263 196 131 186 239 203 97 159 151 150 156 166 176 131 122 115 113 126 129 132 133 133 121 131 151 129 7 9 31 25 18 7 357
220 136 273 351 261 172 235 250 250 183 146 205 203 227 206 174 198 186 219 171 159 167 163 124 122 121 126 126 118 128 134 128 117 125 133 97 105 19 26 34 30 13 353 359
193 176 233 245 271 185 183 206 191 128 281 115 124 258 211 168 187 192 165 164 164 160 140 129 131 135 134 130 129 127 126 131 140 135 128 161 141 48 33 72 48 12 0 352
188 230 266 325 327 198 188 219 195 121 92 201 151 268 68 109 142 147 152 154 160 144 141 135 129 130 124 129 126 132 129 135 131 128 142 164 142 87 21 7 18 354 354 347
153 168 159 213 222 30 227 235 213 142 126 244 209 155 212 171 147 158 144 139 145 148 144 140 138 130 129 132 138 143 137 139 139 134 148 180 154 193 246 232 319 3 3 15
126 173 183 240 280 275 266 285 222 195 212 206 208 157 194 169 150 150 145 142 144 145 139 137 130 133 136 133 135 135 123 137 137 144 173 183 195 210 227 256 293 316 69 5
175 193 184 286 287 274 281 245 96 302 245 97 114 72 132 133 106 123 147 146 143 146 133 133 131 136 141 140 140 145 145 151 148 168 199 185 206 212 214 254 287 323 87 13
140 127 118 245 276 286 290 342 333 228 190 161 135 173 130 137 138 146 144 143 145 147 139 141 145 148 148 150 152 154 150 149 158 186 194 203 213 219 223 242 295 68 359 359
128 120 123 225 10 247 266 310 354 30 93 101 140 159 157 154 161 141 152 141 145 140 142 143 140 135 138 128 132 140 138 162 172 197 201 199 194 206 228 291 146 23 333 331
131 132 149 133 102 320 321 332 44 38 351 307 142 148 145 128 97 130 152 146 149 145 138 134 132 130 127 128 138 138 151 167 185 192 188 203 170 193 277 279 12 351 336 308
172 150 133 123 119 192 232 238 251 149 263 286 148 146 142 124 122 211 136 118 120 124 126 125 125 123 124 133 134 141 175 199 198 191 178 138 143 109 24 21 341 283 310 300
156 150 175 204 157 138 343 266 171 174 230 338 100 128 125 116 192 138 113 108 115 118 119 119 121 124 127 129 138 163 195 204 199 148 139 125 106 86 354 35 327 333 300 347
168 145 195 186 185 140 237 50 127 212 311 109 124 125 103 104 98 105 109 116 118 120 124 123 120 123 129 141 148 153 100 42 116 125 124 110 85 9 321 342 322 343 1 287
45 72 274 308 189 196 230 136 119 110 99 100 111 119 116 109 107 112 115 118 122 125 126 123 126 132 146 157 145 122 134 84 122 119 128 122 116 285 297 314 302 337 1 13
31 17 67 9 274 207 171 133 101 107 93 108 122 121 117 116 120 118 115 121 125 124 130 132 133 136 138 119 115 126 130 113 104 134 132 150 211 258 285 278 258 219 269 349
11 341 4 302 282 58 144 113 107 90 84 100 107 116 119 120 123 123 124 125 129 128 127 142 142 144 148 129 142 148 148 137 122 132 164 246 246 245 259 250 243 233 222 168
233 137 204 254 227 141 150 122 108 99 107 112 113 114 115 122 129 127 125 128 133 135 130 135 134 141 154 138 153 146 148 148 154 166 237 238 240 251 248 245 278 257 195 181